Year,Month,Day,Hour,Minute,Value (Times are PST for temperature in C)
2019,10,27,00,00,8.80
2019,10,27,00,01,8.80
2019,10,27,00,02,8.80
2019,10,27,00,03,8.80
2019,10,27,00,04,8.80
2019,10,27,00,05,8.80
2019,10,27,00,06,8.80
2019,10,27,00,07,8.80
2019,10,27,00,08,8.80
2019,10,27,00,09,8.70
2019,10,27,00,10,8.70
2019,10,27,00,11,8.60
2019,10,27,00,12,8.60
2019,10,27,00,13,8.50
2019,10,27,00,14,8.50
2019,10,27,00,15,8.50
2019,10,27,00,16,8.40
2019,10,27,00,17,8.40
2019,10,27,00,18,8.40
2019,10,27,00,19,8.30
2019,10,27,00,20,8.30
2019,10,27,00,21,8.20
2019,10,27,00,22,8.10
2019,10,27,00,23,8.10
2019,10,27,00,24,8.00
2019,10,27,00,25,7.90
2019,10,27,00,26,7.80
2019,10,27,00,27,7.70
2019,10,27,00,28,7.60
2019,10,27,00,29,7.50
2019,10,27,00,30,7.40
2019,10,27,00,31,7.30
2019,10,27,00,32,7.30
2019,10,27,00,33,7.20
2019,10,27,00,34,7.10
2019,10,27,00,35,7.00
2019,10,27,00,36,7.00
2019,10,27,00,37,6.90
2019,10,27,00,38,6.90
2019,10,27,00,39,6.80
2019,10,27,00,40,6.80
2019,10,27,00,41,6.80
2019,10,27,00,42,6.70
2019,10,27,00,43,6.70
2019,10,27,00,44,6.70
2019,10,27,00,45,6.60
2019,10,27,00,46,6.60
2019,10,27,00,47,6.50
2019,10,27,00,48,6.50
2019,10,27,00,49,6.50
2019,10,27,00,50,6.50
2019,10,27,00,51,6.50
2019,10,27,00,52,6.50
2019,10,27,00,53,6.50
2019,10,27,00,54,6.40
2019,10,27,00,55,6.40
2019,10,27,00,56,6.40
2019,10,27,00,57,6.30
2019,10,27,00,58,6.30
2019,10,27,00,59,6.30
2019,10,27,01,00,6.30
2019,10,27,01,01,6.30
2019,10,27,01,02,6.30
2019,10,27,01,03,6.30
2019,10,27,01,04,6.30
2019,10,27,01,05,6.30
2019,10,27,01,06,6.30
2019,10,27,01,07,6.30
2019,10,27,01,08,6.30
2019,10,27,01,09,6.30
2019,10,27,01,10,6.30
2019,10,27,01,11,6.30
2019,10,27,01,12,6.20
2019,10,27,01,13,6.20
2019,10,27,01,14,6.20
2019,10,27,01,15,6.20
2019,10,27,01,16,6.20
2019,10,27,01,17,6.20
2019,10,27,01,18,6.20
2019,10,27,01,19,6.10
2019,10,27,01,20,6.10
2019,10,27,01,21,6.10
2019,10,27,01,22,6.00
2019,10,27,01,23,6.00
2019,10,27,01,24,6.00
2019,10,27,01,25,6.00
2019,10,27,01,26,6.00
2019,10,27,01,27,6.10
2019,10,27,01,28,6.10
2019,10,27,01,29,6.10
2019,10,27,01,30,6.20
2019,10,27,01,31,6.20
2019,10,27,01,32,6.20
2019,10,27,01,33,6.20
2019,10,27,01,34,6.20
2019,10,27,01,35,6.20
2019,10,27,01,36,6.20
2019,10,27,01,37,6.20
2019,10,27,01,38,6.20
2019,10,27,01,39,6.20
2019,10,27,01,40,6.20
2019,10,27,01,41,6.20
2019,10,27,01,42,6.30
2019,10,27,01,43,6.30
2019,10,27,01,44,6.30
2019,10,27,01,45,6.30
2019,10,27,01,46,6.20
2019,10,27,01,47,6.20
2019,10,27,01,48,6.20
2019,10,27,01,49,6.20
2019,10,27,01,50,6.20
2019,10,27,01,51,6.20
2019,10,27,01,52,6.20
2019,10,27,01,53,6.20
2019,10,27,01,54,6.20
2019,10,27,01,55,6.20
2019,10,27,01,56,6.20
2019,10,27,01,57,6.20
2019,10,27,01,58,6.20
2019,10,27,01,59,6.20
2019,10,27,02,00,6.20
2019,10,27,02,01,6.20
2019,10,27,02,02,6.20
2019,10,27,02,03,6.10
2019,10,27,02,04,6.10
2019,10,27,02,05,6.10
2019,10,27,02,06,6.10
2019,10,27,02,07,6.10
2019,10,27,02,08,6.10
2019,10,27,02,09,6.00
2019,10,27,02,10,6.00
2019,10,27,02,11,6.00
2019,10,27,02,12,5.90
2019,10,27,02,13,5.90
2019,10,27,02,14,5.90
2019,10,27,02,15,5.90
2019,10,27,02,16,5.80
2019,10,27,02,17,5.80
2019,10,27,02,18,5.70
2019,10,27,02,19,5.70
2019,10,27,02,20,5.70
2019,10,27,02,21,5.70
2019,10,27,02,22,5.70
2019,10,27,02,23,5.70
2019,10,27,02,24,5.70
2019,10,27,02,25,5.60
2019,10,27,02,26,5.60
2019,10,27,02,27,5.60
2019,10,27,02,28,5.50
2019,10,27,02,29,5.40
2019,10,27,02,30,5.40
2019,10,27,02,31,5.40
2019,10,27,02,32,5.30
2019,10,27,02,33,5.20
2019,10,27,02,34,5.20
2019,10,27,02,35,5.10
2019,10,27,02,36,5.00
2019,10,27,02,37,5.00
2019,10,27,02,38,4.90
2019,10,27,02,39,4.90
2019,10,27,02,40,4.90
2019,10,27,02,41,4.80
2019,10,27,02,42,4.80
2019,10,27,02,43,4.80
2019,10,27,02,44,4.80
2019,10,27,02,45,4.70
2019,10,27,02,46,4.70
2019,10,27,02,47,4.70
2019,10,27,02,48,4.60
2019,10,27,02,49,4.60
2019,10,27,02,50,4.60
2019,10,27,02,51,4.50
2019,10,27,02,52,4.50
2019,10,27,02,53,4.50
2019,10,27,02,54,4.40
2019,10,27,02,55,4.40
2019,10,27,02,56,4.40
2019,10,27,02,57,4.40
2019,10,27,02,58,4.40
2019,10,27,02,59,4.30
2019,10,27,03,00,4.30
2019,10,27,03,01,4.30
2019,10,27,03,02,4.30
2019,10,27,03,03,4.40
2019,10,27,03,04,4.30
2019,10,27,03,05,4.30
2019,10,27,03,06,4.30
2019,10,27,03,07,4.30
2019,10,27,03,08,4.30
2019,10,27,03,09,4.30
2019,10,27,03,10,4.30
2019,10,27,03,11,4.30
2019,10,27,03,12,4.30
2019,10,27,03,13,4.30
2019,10,27,03,14,4.30
2019,10,27,03,15,4.30
2019,10,27,03,16,4.30
2019,10,27,03,17,4.30
2019,10,27,03,18,4.30
2019,10,27,03,19,4.30
2019,10,27,03,20,4.30
2019,10,27,03,21,4.30
2019,10,27,03,22,4.30
2019,10,27,03,23,4.30
2019,10,27,03,24,4.30
2019,10,27,03,25,4.30
2019,10,27,03,26,4.20
2019,10,27,03,27,4.30
2019,10,27,03,28,4.30
2019,10,27,03,29,4.30
2019,10,27,03,30,4.30
2019,10,27,03,31,4.30
2019,10,27,03,32,4.30
2019,10,27,03,33,4.30
2019,10,27,03,34,4.30
2019,10,27,03,35,4.30
2019,10,27,03,36,4.30
2019,10,27,03,37,4.30
2019,10,27,03,38,4.30
2019,10,27,03,39,4.40
2019,10,27,03,40,4.40
2019,10,27,03,41,4.40
2019,10,27,03,42,4.40
2019,10,27,03,43,4.40
2019,10,27,03,44,4.40
2019,10,27,03,45,4.40
2019,10,27,03,46,4.40
2019,10,27,03,47,4.30
2019,10,27,03,48,4.30
2019,10,27,03,49,4.30
2019,10,27,03,50,4.20
2019,10,27,03,51,4.20
2019,10,27,03,52,4.20
2019,10,27,03,53,4.20
2019,10,27,03,54,4.10
2019,10,27,03,55,4.10
2019,10,27,03,56,4.10
2019,10,27,03,57,4.10
2019,10,27,03,58,4.10
2019,10,27,03,59,4.10
2019,10,27,04,00,4.20
2019,10,27,04,01,4.20
2019,10,27,04,02,4.20
2019,10,27,04,03,4.20
2019,10,27,04,04,4.20
2019,10,27,04,05,4.20
2019,10,27,04,06,4.20
2019,10,27,04,07,4.20
2019,10,27,04,08,4.20
2019,10,27,04,09,4.10
2019,10,27,04,10,4.10
2019,10,27,04,11,4.10
2019,10,27,04,12,4.00
2019,10,27,04,13,4.00
2019,10,27,04,14,4.00
2019,10,27,04,15,3.90
2019,10,27,04,16,3.90
2019,10,27,04,17,3.90
2019,10,27,04,18,3.90
2019,10,27,04,19,3.90
2019,10,27,04,20,3.90
2019,10,27,04,21,4.00
2019,10,27,04,22,4.00
2019,10,27,04,23,4.10
2019,10,27,04,24,4.10
2019,10,27,04,25,4.20
2019,10,27,04,26,4.20
2019,10,27,04,27,4.20
2019,10,27,04,28,4.20
2019,10,27,04,29,4.20
2019,10,27,04,30,4.20
2019,10,27,04,31,4.20
2019,10,27,04,32,4.10
2019,10,27,04,33,4.10
2019,10,27,04,34,4.10
2019,10,27,04,35,4.00
2019,10,27,04,36,4.00
2019,10,27,04,37,3.90
2019,10,27,04,38,3.90
2019,10,27,04,39,4.00
2019,10,27,04,40,4.00
2019,10,27,04,41,4.00
2019,10,27,04,42,4.00
2019,10,27,04,43,4.00
2019,10,27,04,44,4.10
2019,10,27,04,45,4.10
2019,10,27,04,46,4.10
2019,10,27,04,47,4.00
2019,10,27,04,48,4.00
2019,10,27,04,49,4.00
2019,10,27,04,50,4.00
2019,10,27,04,51,3.90
2019,10,27,04,52,3.90
2019,10,27,04,53,3.90
2019,10,27,04,54,3.90
2019,10,27,04,55,3.80
2019,10,27,04,56,3.80
2019,10,27,04,57,3.80
2019,10,27,04,58,3.80
2019,10,27,04,59,3.80
2019,10,27,05,00,3.80
2019,10,27,05,01,3.80
2019,10,27,05,02,3.70
2019,10,27,05,03,3.70
2019,10,27,05,04,3.70
2019,10,27,05,05,3.70
2019,10,27,05,06,3.60
2019,10,27,05,07,3.60
2019,10,27,05,08,3.60
2019,10,27,05,09,3.50
2019,10,27,05,10,3.50
2019,10,27,05,11,3.50
2019,10,27,05,12,3.50
2019,10,27,05,13,3.50
2019,10,27,05,14,3.40
2019,10,27,05,15,3.40
2019,10,27,05,16,3.40
2019,10,27,05,17,3.40
2019,10,27,05,18,3.40
2019,10,27,05,19,3.40
2019,10,27,05,20,3.40
2019,10,27,05,21,3.40
2019,10,27,05,22,3.40
2019,10,27,05,23,3.30
2019,10,27,05,24,3.30
2019,10,27,05,25,3.30
2019,10,27,05,26,3.30
2019,10,27,05,27,3.30
2019,10,27,05,28,3.30
2019,10,27,05,29,3.40
2019,10,27,05,30,3.40
2019,10,27,05,31,3.40
2019,10,27,05,32,3.40
2019,10,27,05,33,3.40
2019,10,27,05,34,3.40
2019,10,27,05,35,3.40
2019,10,27,05,36,3.30
2019,10,27,05,37,3.30
2019,10,27,05,38,3.30
2019,10,27,05,39,3.30
2019,10,27,05,40,3.30
2019,10,27,05,41,3.30
2019,10,27,05,42,3.30
2019,10,27,05,43,3.30
2019,10,27,05,44,3.30
2019,10,27,05,45,3.30
2019,10,27,05,46,3.30
2019,10,27,05,47,3.30
2019,10,27,05,48,3.40
2019,10,27,05,49,3.40
2019,10,27,05,50,3.40
2019,10,27,05,51,3.40
2019,10,27,05,52,3.30
2019,10,27,05,53,3.30
2019,10,27,05,54,3.30
2019,10,27,05,55,3.40
2019,10,27,05,56,3.40
2019,10,27,05,57,3.40
2019,10,27,05,58,3.40
2019,10,27,05,59,3.40
2019,10,27,06,00,3.40
2019,10,27,06,01,3.40
2019,10,27,06,02,3.40
2019,10,27,06,03,3.40
2019,10,27,06,04,3.40
2019,10,27,06,05,3.40
2019,10,27,06,06,3.30
2019,10,27,06,07,3.30
2019,10,27,06,08,3.30
2019,10,27,06,09,3.30
2019,10,27,06,10,3.30
2019,10,27,06,11,3.30
2019,10,27,06,12,3.30
2019,10,27,06,13,3.30
2019,10,27,06,14,3.30
2019,10,27,06,15,3.30
2019,10,27,06,16,3.30
2019,10,27,06,17,3.20
2019,10,27,06,18,3.20
2019,10,27,06,19,3.20
2019,10,27,06,20,3.20
2019,10,27,06,21,3.20
2019,10,27,06,22,3.20
2019,10,27,06,23,3.20
2019,10,27,06,24,3.20
2019,10,27,06,25,3.20
2019,10,27,06,26,3.20
2019,10,27,06,27,3.20
2019,10,27,06,28,3.20
2019,10,27,06,29,3.20
2019,10,27,06,30,3.20
2019,10,27,06,31,3.20
2019,10,27,06,32,3.20
2019,10,27,06,33,3.30
2019,10,27,06,34,3.20
2019,10,27,06,35,3.20
2019,10,27,06,36,3.20
2019,10,27,06,37,3.30
2019,10,27,06,38,3.20
2019,10,27,06,39,3.20
2019,10,27,06,40,3.20
2019,10,27,06,41,3.20
2019,10,27,06,42,3.20
2019,10,27,06,43,3.20
2019,10,27,06,44,3.20
2019,10,27,06,45,3.20
2019,10,27,06,46,3.20
2019,10,27,06,47,3.20
2019,10,27,06,48,3.20
2019,10,27,06,49,3.20
2019,10,27,06,50,3.20
2019,10,27,06,51,3.20
2019,10,27,06,52,3.20
2019,10,27,06,53,3.20
2019,10,27,06,54,3.20
2019,10,27,06,55,3.10
2019,10,27,06,56,3.10
2019,10,27,06,57,3.10
2019,10,27,06,58,3.10
2019,10,27,06,59,3.10
2019,10,27,07,00,3.10
2019,10,27,07,01,3.20
2019,10,27,07,02,3.20
2019,10,27,07,03,3.20
2019,10,27,07,04,3.20
2019,10,27,07,05,3.20
2019,10,27,07,06,3.30
2019,10,27,07,07,3.30
2019,10,27,07,08,3.30
2019,10,27,07,09,3.30
2019,10,27,07,10,3.30
2019,10,27,07,11,3.30
2019,10,27,07,12,3.20
2019,10,27,07,13,3.20
2019,10,27,07,14,3.20
2019,10,27,07,15,3.20
2019,10,27,07,16,3.20
2019,10,27,07,17,3.20
2019,10,27,07,18,3.20
2019,10,27,07,19,3.20
2019,10,27,07,20,3.20
2019,10,27,07,21,3.20
2019,10,27,07,22,3.20
2019,10,27,07,23,3.20
2019,10,27,07,24,3.20
2019,10,27,07,25,3.20
2019,10,27,07,26,3.20
2019,10,27,07,27,3.20
2019,10,27,07,28,3.10
2019,10,27,07,29,3.10
2019,10,27,07,30,3.10
2019,10,27,07,31,3.10
2019,10,27,07,32,3.10
2019,10,27,07,33,3.00
2019,10,27,07,34,3.00
2019,10,27,07,35,3.00
2019,10,27,07,36,2.90
2019,10,27,07,37,2.90
2019,10,27,07,38,2.90
2019,10,27,07,39,2.90
2019,10,27,07,40,2.90
2019,10,27,07,41,2.80
2019,10,27,07,42,2.80
2019,10,27,07,43,2.80
2019,10,27,07,44,2.80
2019,10,27,07,45,2.80
2019,10,27,07,46,2.80
2019,10,27,07,47,2.80
2019,10,27,07,48,2.80
2019,10,27,07,49,2.80
2019,10,27,07,50,2.80
2019,10,27,07,51,2.70
2019,10,27,07,52,2.70
2019,10,27,07,53,2.70
2019,10,27,07,54,2.70
2019,10,27,07,55,2.70
2019,10,27,07,56,2.70
2019,10,27,07,57,2.70
2019,10,27,07,58,2.70
2019,10,27,07,59,2.70
2019,10,27,08,00,2.70
2019,10,27,08,01,2.70
2019,10,27,08,02,2.70
2019,10,27,08,03,2.60
2019,10,27,08,04,2.60
2019,10,27,08,05,2.60
2019,10,27,08,06,2.60
2019,10,27,08,07,2.60
2019,10,27,08,08,2.60
2019,10,27,08,09,2.60
2019,10,27,08,10,2.60
2019,10,27,08,11,2.60
2019,10,27,08,12,2.60
2019,10,27,08,13,2.60
2019,10,27,08,14,2.60
2019,10,27,08,15,2.60
2019,10,27,08,16,2.60
2019,10,27,08,17,2.60
2019,10,27,08,18,2.60
2019,10,27,08,19,2.70
2019,10,27,08,20,2.70
2019,10,27,08,21,2.70
2019,10,27,08,22,2.70
2019,10,27,08,23,2.70
2019,10,27,08,24,2.70
2019,10,27,08,25,2.70
2019,10,27,08,26,2.70
2019,10,27,08,27,2.70
2019,10,27,08,28,2.70
2019,10,27,08,29,2.70
2019,10,27,08,30,2.70
2019,10,27,08,31,2.70
2019,10,27,08,32,2.60
2019,10,27,08,33,2.60
2019,10,27,08,34,2.60
2019,10,27,08,35,2.60
2019,10,27,08,36,2.60
2019,10,27,08,37,2.60
2019,10,27,08,38,2.60
2019,10,27,08,39,2.60
2019,10,27,08,40,2.60
2019,10,27,08,41,2.60
2019,10,27,08,42,2.60
2019,10,27,08,43,2.60
2019,10,27,08,44,2.60
2019,10,27,08,45,2.60
2019,10,27,08,46,2.60
2019,10,27,08,47,2.70
2019,10,27,08,48,2.70
2019,10,27,08,49,2.70
2019,10,27,08,50,2.70
2019,10,27,08,51,2.70
2019,10,27,08,52,2.70
2019,10,27,08,53,2.80
2019,10,27,08,54,2.80
2019,10,27,08,55,2.80
2019,10,27,08,56,2.80
2019,10,27,08,57,2.90
2019,10,27,08,58,2.90
2019,10,27,08,59,3.00
2019,10,27,09,00,3.00
2019,10,27,09,01,3.00
2019,10,27,09,02,3.10
2019,10,27,09,03,3.10
2019,10,27,09,04,3.10
2019,10,27,09,05,3.20
2019,10,27,09,06,3.20
2019,10,27,09,07,3.30
2019,10,27,09,08,3.30
2019,10,27,09,09,3.40
2019,10,27,09,10,3.50
2019,10,27,09,11,3.60
2019,10,27,09,12,3.60
2019,10,27,09,13,3.70
2019,10,27,09,14,3.80
2019,10,27,09,15,3.80
2019,10,27,09,16,3.90
2019,10,27,09,17,4.00
2019,10,27,09,18,4.10
2019,10,27,09,19,4.30
2019,10,27,09,20,4.40
2019,10,27,09,21,4.50
2019,10,27,09,22,4.60
2019,10,27,09,23,4.70
2019,10,27,09,24,4.80
2019,10,27,09,25,4.90
2019,10,27,09,26,5.10
2019,10,27,09,27,5.20
2019,10,27,09,28,5.30
2019,10,27,09,29,5.40
2019,10,27,09,30,5.50
2019,10,27,09,31,5.60
2019,10,27,09,32,5.70
2019,10,27,09,33,5.80
2019,10,27,09,34,5.90
2019,10,27,09,35,6.00
2019,10,27,09,36,6.10
2019,10,27,09,37,6.20
2019,10,27,09,38,6.30
2019,10,27,09,39,6.30
2019,10,27,09,40,6.40
2019,10,27,09,41,6.50
2019,10,27,09,42,6.60
2019,10,27,09,43,6.70
2019,10,27,09,44,6.80
2019,10,27,09,45,7.00
2019,10,27,09,46,7.10
2019,10,27,09,47,7.20
2019,10,27,09,48,7.20
2019,10,27,09,49,7.30
2019,10,27,09,50,7.30
2019,10,27,09,51,7.30
2019,10,27,09,52,7.30
2019,10,27,09,53,7.40
2019,10,27,09,54,7.40
2019,10,27,09,55,7.40
2019,10,27,09,56,7.50
2019,10,27,09,57,7.50
2019,10,27,09,58,7.50
2019,10,27,09,59,7.50
2019,10,27,10,00,7.60
2019,10,27,10,01,7.60
2019,10,27,10,02,7.70
2019,10,27,10,03,7.70
2019,10,27,10,04,7.80
2019,10,27,10,05,7.80
2019,10,27,10,06,7.80
2019,10,27,10,07,7.90
2019,10,27,10,08,8.00
2019,10,27,10,09,8.00
2019,10,27,10,10,8.10
2019,10,27,10,11,8.20
2019,10,27,10,12,8.30
2019,10,27,10,13,8.40
2019,10,27,10,14,8.50
2019,10,27,10,15,8.50
2019,10,27,10,16,8.60
2019,10,27,10,17,8.70
2019,10,27,10,18,8.70
2019,10,27,10,19,8.80
2019,10,27,10,20,8.80
2019,10,27,10,21,8.80
2019,10,27,10,22,8.90
2019,10,27,10,23,8.90
2019,10,27,10,24,8.80
2019,10,27,10,25,8.80
2019,10,27,10,26,8.80
2019,10,27,10,27,8.70
2019,10,27,10,28,8.70
2019,10,27,10,29,8.70
2019,10,27,10,30,8.60
2019,10,27,10,31,8.60
2019,10,27,10,32,8.60
2019,10,27,10,33,8.60
2019,10,27,10,34,8.60
2019,10,27,10,35,8.50
2019,10,27,10,36,8.50
2019,10,27,10,37,8.50
2019,10,27,10,38,8.40
2019,10,27,10,39,8.40
2019,10,27,10,40,8.40
2019,10,27,10,41,8.40
2019,10,27,10,42,8.30
2019,10,27,10,43,8.30
2019,10,27,10,44,8.30
2019,10,27,10,45,8.30
2019,10,27,10,46,8.40
2019,10,27,10,47,8.40
2019,10,27,10,48,8.50
2019,10,27,10,49,8.50
2019,10,27,10,50,8.60
2019,10,27,10,51,8.60
2019,10,27,10,52,8.60
2019,10,27,10,53,8.60
2019,10,27,10,54,8.70
2019,10,27,10,55,8.70
2019,10,27,10,56,8.70
2019,10,27,10,57,8.80
2019,10,27,10,58,8.80
2019,10,27,10,59,8.90
2019,10,27,11,00,8.90
2019,10,27,11,01,8.90
2019,10,27,11,02,8.90
2019,10,27,11,03,8.90
2019,10,27,11,04,8.90
2019,10,27,11,05,8.90
2019,10,27,11,06,8.90
2019,10,27,11,07,9.00
2019,10,27,11,08,9.00
2019,10,27,11,09,9.10
2019,10,27,11,10,9.10
2019,10,27,11,11,9.20
2019,10,27,11,12,9.30
2019,10,27,11,13,9.30
2019,10,27,11,14,9.40
2019,10,27,11,15,9.50
2019,10,27,11,16,9.60
2019,10,27,11,17,9.70
2019,10,27,11,18,9.80
2019,10,27,11,19,9.80
2019,10,27,11,20,9.80
2019,10,27,11,21,9.90
2019,10,27,11,22,9.90
2019,10,27,11,23,10.00
2019,10,27,11,24,10.00
2019,10,27,11,25,10.10
2019,10,27,11,26,10.10
2019,10,27,11,27,10.20
2019,10,27,11,28,10.20
2019,10,27,11,29,10.30
2019,10,27,11,30,10.30
2019,10,27,11,31,10.40
2019,10,27,11,32,10.40
2019,10,27,11,33,10.40
2019,10,27,11,34,10.30
2019,10,27,11,35,10.20
2019,10,27,11,36,10.10
2019,10,27,11,37,10.00
2019,10,27,11,38,10.00
2019,10,27,11,39,10.00
2019,10,27,11,40,10.00
2019,10,27,11,41,10.00
2019,10,27,11,42,10.00
2019,10,27,11,43,10.10
2019,10,27,11,44,10.20
2019,10,27,11,45,10.20
2019,10,27,11,46,10.20
2019,10,27,11,47,10.20
2019,10,27,11,48,10.20
2019,10,27,11,49,10.10
2019,10,27,11,50,10.10
2019,10,27,11,51,10.10
2019,10,27,11,52,10.10
2019,10,27,11,53,10.10
2019,10,27,11,54,10.00
2019,10,27,11,55,10.00
2019,10,27,11,56,9.90
2019,10,27,11,57,9.90
2019,10,27,11,58,9.90
2019,10,27,11,59,9.90
2019,10,27,12,00,9.90
2019,10,27,12,01,9.90
2019,10,27,12,02,9.90
2019,10,27,12,03,9.80
2019,10,27,12,04,9.80
2019,10,27,12,05,9.80
2019,10,27,12,06,9.80
2019,10,27,12,07,9.90
2019,10,27,12,08,9.90
2019,10,27,12,09,10.00
2019,10,27,12,10,10.00
2019,10,27,12,11,10.10
2019,10,27,12,12,10.10
2019,10,27,12,13,10.10
2019,10,27,12,14,10.10
2019,10,27,12,15,10.10
2019,10,27,12,16,10.10
2019,10,27,12,17,10.10
2019,10,27,12,18,10.10
2019,10,27,12,19,10.10
2019,10,27,12,20,10.10
2019,10,27,12,21,10.10
2019,10,27,12,22,10.00
2019,10,27,12,23,10.00
2019,10,27,12,24,9.90
2019,10,27,12,25,9.90
2019,10,27,12,26,9.90
2019,10,27,12,27,10.00
2019,10,27,12,28,10.00
2019,10,27,12,29,10.00
2019,10,27,12,30,10.10
2019,10,27,12,31,10.10
2019,10,27,12,32,10.10
2019,10,27,12,33,10.10
2019,10,27,12,34,10.10
2019,10,27,12,35,10.10
2019,10,27,12,36,10.20
2019,10,27,12,37,10.20
2019,10,27,12,38,10.20
2019,10,27,12,39,10.30
2019,10,27,12,40,10.40
2019,10,27,12,41,10.50
2019,10,27,12,42,10.60
2019,10,27,12,43,10.60
2019,10,27,12,44,10.70
2019,10,27,12,45,10.80
2019,10,27,12,46,10.80
2019,10,27,12,47,10.90
2019,10,27,12,48,10.90
2019,10,27,12,49,11.00
2019,10,27,12,50,11.00
2019,10,27,12,51,11.10
2019,10,27,12,52,11.20
2019,10,27,12,53,11.20
2019,10,27,12,54,11.20
2019,10,27,12,55,11.20
2019,10,27,12,56,11.20
2019,10,27,12,57,11.20
2019,10,27,12,58,11.20
2019,10,27,12,59,11.20
2019,10,27,13,00,11.20
2019,10,27,13,01,11.10
2019,10,27,13,02,11.10
2019,10,27,13,03,11.10
2019,10,27,13,04,11.10
2019,10,27,13,05,11.10
2019,10,27,13,06,11.10
2019,10,27,13,07,11.20
2019,10,27,13,08,11.20
2019,10,27,13,09,11.20
2019,10,27,13,10,11.20
2019,10,27,13,11,11.30
2019,10,27,13,12,11.30
2019,10,27,13,13,11.30
2019,10,27,13,14,11.30
2019,10,27,13,15,11.40
2019,10,27,13,16,11.40
2019,10,27,13,17,11.40
2019,10,27,13,18,11.40
2019,10,27,13,19,11.50
2019,10,27,13,20,11.50
2019,10,27,13,21,11.60
2019,10,27,13,22,11.60
2019,10,27,13,23,11.60
2019,10,27,13,24,11.60
2019,10,27,13,25,11.60
2019,10,27,13,26,11.60
2019,10,27,13,27,11.60
2019,10,27,13,28,11.60
2019,10,27,13,29,11.60
2019,10,27,13,30,11.70
2019,10,27,13,31,11.70
2019,10,27,13,32,11.70
2019,10,27,13,33,11.70
2019,10,27,13,34,11.70
2019,10,27,13,35,11.80
2019,10,27,13,36,11.80
2019,10,27,13,37,11.80
2019,10,27,13,38,11.90
2019,10,27,13,39,11.90
2019,10,27,13,40,11.90
2019,10,27,13,41,12.00
2019,10,27,13,42,12.00
2019,10,27,13,43,12.00
2019,10,27,13,44,12.00
2019,10,27,13,45,11.90
2019,10,27,13,46,12.00
2019,10,27,13,47,12.00
2019,10,27,13,48,12.10
2019,10,27,13,49,12.10
2019,10,27,13,50,12.00
2019,10,27,13,51,12.00
2019,10,27,13,52,11.90
2019,10,27,13,53,11.90
2019,10,27,13,54,11.90
2019,10,27,13,55,11.80
2019,10,27,13,56,11.80
2019,10,27,13,57,11.80
2019,10,27,13,58,11.80
2019,10,27,13,59,11.80
2019,10,27,14,00,11.80
2019,10,27,14,01,11.80
2019,10,27,14,02,11.80
2019,10,27,14,03,11.80
2019,10,27,14,04,11.80
2019,10,27,14,05,11.90
2019,10,27,14,06,11.90
2019,10,27,14,07,11.80
2019,10,27,14,08,11.80
2019,10,27,14,09,11.70
2019,10,27,14,10,11.70
2019,10,27,14,11,11.70
2019,10,27,14,12,11.70
2019,10,27,14,13,11.70
2019,10,27,14,14,11.70
2019,10,27,14,15,11.70
2019,10,27,14,16,11.70
2019,10,27,14,17,11.70
2019,10,27,14,18,11.80
2019,10,27,14,19,11.80
2019,10,27,14,20,11.80
2019,10,27,14,21,11.90
2019,10,27,14,22,11.90
2019,10,27,14,23,11.90
2019,10,27,14,24,11.90
2019,10,27,14,25,11.90
2019,10,27,14,26,12.00
2019,10,27,14,27,12.00
2019,10,27,14,28,12.10
2019,10,27,14,29,12.10
2019,10,27,14,30,12.10
2019,10,27,14,31,12.10
2019,10,27,14,32,12.10
2019,10,27,14,33,12.10
2019,10,27,14,34,12.10
2019,10,27,14,35,12.10
2019,10,27,14,36,12.10
2019,10,27,14,37,12.10
2019,10,27,14,38,12.10
2019,10,27,14,39,12.10
2019,10,27,14,40,12.10
2019,10,27,14,41,12.10
2019,10,27,14,42,12.10
2019,10,27,14,43,12.10
2019,10,27,14,44,12.10
2019,10,27,14,45,12.00
2019,10,27,14,46,12.00
2019,10,27,14,47,12.00
2019,10,27,14,48,12.00
2019,10,27,14,49,12.00
2019,10,27,14,50,12.10
2019,10,27,14,51,12.10
2019,10,27,14,52,12.10
2019,10,27,14,53,12.10
2019,10,27,14,54,12.10
2019,10,27,14,55,12.10
2019,10,27,14,56,12.10
2019,10,27,14,57,12.20
2019,10,27,14,58,12.20
2019,10,27,14,59,12.20
2019,10,27,15,00,12.20
2019,10,27,15,01,12.20
2019,10,27,15,02,12.20
2019,10,27,15,03,12.30
2019,10,27,15,04,12.30
2019,10,27,15,05,12.30
2019,10,27,15,06,12.30
2019,10,27,15,07,12.30
2019,10,27,15,08,12.40
2019,10,27,15,09,12.40
2019,10,27,15,10,12.40
2019,10,27,15,11,12.30
2019,10,27,15,12,12.30
2019,10,27,15,13,12.30
2019,10,27,15,14,12.20
2019,10,27,15,15,12.10
2019,10,27,15,16,12.10
2019,10,27,15,17,12.00
2019,10,27,15,18,12.00
2019,10,27,15,19,11.90
2019,10,27,15,20,11.90
2019,10,27,15,21,11.80
2019,10,27,15,22,11.80
2019,10,27,15,23,11.80
2019,10,27,15,24,11.80
2019,10,27,15,25,11.80
2019,10,27,15,26,11.80
2019,10,27,15,27,11.80
2019,10,27,15,28,11.90
2019,10,27,15,29,11.90
2019,10,27,15,30,11.90
2019,10,27,15,31,11.90
2019,10,27,15,32,12.00
2019,10,27,15,33,12.00
2019,10,27,15,34,12.10
2019,10,27,15,35,12.10
2019,10,27,15,36,12.20
2019,10,27,15,37,12.20
2019,10,27,15,38,12.20
2019,10,27,15,39,12.30
2019,10,27,15,40,12.30
2019,10,27,15,41,12.30
2019,10,27,15,42,12.30
2019,10,27,15,43,12.30
2019,10,27,15,44,12.30
2019,10,27,15,45,12.30
2019,10,27,15,46,12.30
2019,10,27,15,47,12.20
2019,10,27,15,48,12.20
2019,10,27,15,49,12.10
2019,10,27,15,50,12.10
2019,10,27,15,51,12.10
2019,10,27,15,52,12.10
2019,10,27,15,53,12.00
2019,10,27,15,54,12.00
2019,10,27,15,55,11.90
2019,10,27,15,56,11.90
2019,10,27,15,57,11.90
2019,10,27,15,58,11.90
2019,10,27,15,59,11.80
2019,10,27,16,00,11.80
2019,10,27,16,01,11.80
2019,10,27,16,02,11.80
2019,10,27,16,03,11.80
2019,10,27,16,04,11.80
2019,10,27,16,05,11.80
2019,10,27,16,06,11.80
2019,10,27,16,07,11.80
2019,10,27,16,08,11.90
2019,10,27,16,09,11.90
2019,10,27,16,10,11.90
2019,10,27,16,11,12.00
2019,10,27,16,12,12.00
2019,10,27,16,13,12.10
2019,10,27,16,14,12.10
2019,10,27,16,15,12.10
2019,10,27,16,16,12.20
2019,10,27,16,17,12.20
2019,10,27,16,18,12.30
2019,10,27,16,19,12.30
2019,10,27,16,20,12.30
2019,10,27,16,21,12.30
2019,10,27,16,22,12.40
2019,10,27,16,23,12.40
2019,10,27,16,24,12.40
2019,10,27,16,25,12.40
2019,10,27,16,26,12.40
2019,10,27,16,27,12.40
2019,10,27,16,28,12.40
2019,10,27,16,29,12.40
2019,10,27,16,30,12.50
2019,10,27,16,31,12.50
2019,10,27,16,32,12.50
2019,10,27,16,33,12.50
2019,10,27,16,34,12.60
2019,10,27,16,35,12.60
2019,10,27,16,36,12.60
2019,10,27,16,37,12.70
2019,10,27,16,38,12.70
2019,10,27,16,39,12.70
2019,10,27,16,40,12.70
2019,10,27,16,41,12.70
2019,10,27,16,42,12.60
2019,10,27,16,43,12.60
2019,10,27,16,44,12.60
2019,10,27,16,45,12.50
2019,10,27,16,46,12.50
2019,10,27,16,47,12.50
2019,10,27,16,48,12.50
2019,10,27,16,49,12.40
2019,10,27,16,50,12.40
2019,10,27,16,51,12.40
2019,10,27,16,52,12.40
2019,10,27,16,53,12.30
2019,10,27,16,54,12.30
2019,10,27,16,55,12.30
2019,10,27,16,56,12.30
2019,10,27,16,57,12.30
2019,10,27,16,58,12.30
2019,10,27,16,59,12.30
2019,10,27,17,00,12.30
2019,10,27,17,01,12.30
2019,10,27,17,02,12.30
2019,10,27,17,03,12.30
2019,10,27,17,04,12.30
2019,10,27,17,05,12.30
2019,10,27,17,06,12.30
2019,10,27,17,07,12.40
2019,10,27,17,08,12.40
2019,10,27,17,09,12.40
2019,10,27,17,10,12.40
2019,10,27,17,11,12.50
2019,10,27,17,12,12.50
2019,10,27,17,13,12.50
2019,10,27,17,14,12.40
2019,10,27,17,15,12.40
2019,10,27,17,16,12.40
2019,10,27,17,17,12.40
2019,10,27,17,18,12.40
2019,10,27,17,19,12.40
2019,10,27,17,20,12.40
2019,10,27,17,21,12.30
2019,10,27,17,22,12.30
2019,10,27,17,23,12.30
2019,10,27,17,24,12.30
2019,10,27,17,25,12.20
2019,10,27,17,26,12.20
2019,10,27,17,27,12.10
2019,10,27,17,28,12.00
2019,10,27,17,29,12.00
2019,10,27,17,30,11.90
2019,10,27,17,31,11.80
2019,10,27,17,32,11.70
2019,10,27,17,33,11.60
2019,10,27,17,34,11.40
2019,10,27,17,35,11.30
2019,10,27,17,36,11.10
2019,10,27,17,37,11.00
2019,10,27,17,38,10.80
2019,10,27,17,39,10.70
2019,10,27,17,40,10.50
2019,10,27,17,41,10.40
2019,10,27,17,42,10.20
2019,10,27,17,43,10.10
2019,10,27,17,44,10.00
2019,10,27,17,45,9.90
2019,10,27,17,46,9.80
2019,10,27,17,47,9.60
2019,10,27,17,48,9.50
2019,10,27,17,49,9.40
2019,10,27,17,50,9.30